Weather History for TTCP - August, 2013

Change the Weather History Date:

Thursday, August 8, 2013

  Actual Average Record
Temperature  
Mean Temperature 80 °F -  
Max Temperature 86 °F 86 °F 91 °F (1998)
Min Temperature 73 °F 75 °F 73 °F (2013)
Cooling Degree Days 14    
Growing Degree Days 30 (Base 50)    
Moisture  
Dew Point 73 °F    
Average Humidity 81    
Maximum Humidity 94    
Minimum Humidity 62    
Precipitation  
Precipitation 0.00 in - - ()
Sea Level Pressure  
Sea Level Pressure 29.87 in    
Wind  
Wind Speed 8 mph ()    
Max Wind Speed 17 mph    
Max Gust Speed -    
Visibility 5.5 miles    
Events Rain , Thunderstorm    
Averages and records for this station are not official NWS values.
T = Trace of Precipitation, MM = Missing Value Source: Averaged Metar Reports

Daily Weather History Graph

Daily Weather History Graph

Search for Another Location

Airport or City:

Trip Planner

Search our weather history database for the weather conditions in past years. The results will help you decide how hot, cold, wet, or windy it might be!

Date:

Astronomy

Aug. 08, 2013 Rise Set
Actual Time 5:52 AM AST 6:25 PM AST
Civil Twilight 5:30 AM AST 6:47 PM AST
Nautical Twilight 5:04 AM AST 7:13 PM AST
Astronomical Twilight 4:38 AM AST 7:39 PM AST
Moon 7:06 AM AST (8/8) 7:35 PM AST (8/8)
Length of Visible Light 13h 16m
Length of Day
12h 32m
Waxing Crescent, 3% of the Moon is Illuminated
Aug 8
Waxing Crescent
Aug 14
First Quarter
Aug 20
Full
Aug 28
Last Quarter
Sep 5
New

Hourly Weather History & Observations

Time (AST) Temp. Heat Index Dew Point Humidity Pressure Visibility Wind Dir Wind Speed Gust Speed Precip Events Conditions
12:00 AM 78.8 °F - 73.4 °F 83% 29.89 in 6.2 mi East 12.7 mph - N/A   Mostly Cloudy
1:00 AM 80.6 °F 85.4 °F 73.4 °F 79% 29.86 in 6.2 mi East 17.3 mph - N/A   Partly Cloudy
2:00 AM 80.6 °F 85.4 °F 73.4 °F 79% 29.86 in 6.2 mi East 9.2 mph - N/A   Partly Cloudy
6:00 AM 80.6 °F 85.4 °F 73.4 °F 79% 29.86 in 6.2 mi Calm Calm - N/A   Mostly Cloudy
7:00 AM 82.4 °F 88.2 °F 73.4 °F 74% 29.86 in 6.2 mi East 5.8 mph - N/A   Mostly Cloudy
8:00 AM 84.2 °F 94.1 °F 77.0 °F 79% 29.89 in 6.2 mi ESE 11.5 mph - N/A   Mostly Cloudy
9:00 AM 84.2 °F 88.4 °F 69.8 °F 62% 29.89 in 6.2 mi East 11.5 mph - N/A   Mostly Cloudy
10:00 AM 86.0 °F 93.4 °F 73.4 °F 66% 29.89 in 6.2 mi ESE 11.5 mph - N/A   Mostly Cloudy
11:00 AM 82.4 °F 87.2 °F 71.6 °F 70% 29.92 in 6.2 mi ENE 5.8 mph - N/A   Mostly Cloudy
12:00 PM 77.0 °F - 73.4 °F 89% 29.92 in 0.6 mi ESE 13.8 mph - N/A Rain , Thunderstorm Thunderstorms and Rain
1:00 PM 73.4 °F - 71.6 °F 94% 29.92 in 1.9 mi ESE 11.5 mph - N/A Rain , Thunderstorm Thunderstorms and Rain
2:00 PM 80.6 °F 87.1 °F 77.0 °F 89% 29.89 in 3.1 mi South 5.8 mph - N/A Rain Light Rain Showers
3:00 PM 78.8 °F - 73.4 °F 83% 29.86 in - NNE 5.8 mph - N/A Rain Light Rain
3:05 PM 80.6 °F 87.1 °F 77.0 °F 89% 29.86 in 5.0 mi NNE 5.8 mph - N/A Thunderstorm Thunderstorm
4:00 PM 80.6 °F 85.4 °F 73.4 °F 79% 29.83 in 5.0 mi SE 5.8 mph - N/A   Mostly Cloudy
5:00 PM 80.6 °F 85.4 °F 73.4 °F 79% 29.83 in 6.2 mi SE 5.8 mph - N/A   Mostly Cloudy
6:00 PM 78.8 °F - 73.4 °F 83% 29.83 in 6.2 mi SE 11.5 mph - N/A   Mostly Cloudy
7:00 PM 77.0 °F - 71.6 °F 83% 29.83 in 6.2 mi ESE 9.2 mph - N/A   Scattered Clouds
8:00 PM 77.0 °F - 71.6 °F 83% 29.86 in 6.2 mi ESE 3.5 mph - N/A   Scattered Clouds
9:00 PM 77.0 °F - 71.6 °F 83% 29.86 in 6.2 mi Calm Calm - N/A   Scattered Clouds
10:00 PM 75.2 °F - 69.8 °F 83% 29.89 in 6.2 mi Calm Calm - N/A   Partly Cloudy
11:00 PM 75.2 °F - 69.8 °F 83% 29.89 in 6.2 mi Calm Calm - N/A   Partly Cloudy